铱星星座 148星 (IRIDIUM 148)

导读

IRIDIUM 148(铱星148)是美国铱星卫星通信系统中的一颗低轨通信卫星,于2018年3月30日发射入轨。作为第二代铱星星座的组成部分,它运行在约780公里高度的近地轨道,属于全球卫星通信网络的一部分,为全球任何地点提供无缝隙的移动通信服务,支持语音、数据等通信业务,补充完善了铱星系统的全球覆盖能力。

Basic Information
目录编号:
43255
目录名称:
IRIDIUM 148
国际标识:
2018-030G
轨道中心:
EARTH
卫星名称:
铱星星座 148星
卫星全名:
铱星星座 148星 (IRIDIUM 148)
卫星状态:
在轨 (已飞行3088 天)
发射日期:
2018-03-30 UTC
国别 :
美国 (US)
星等 :
--
This satellite is enrolled in the Space Conjunction Data Service (SCDS) and the current flight risk assessment level is: No High Risk
Orbit Information
数据来源 国际轨道数据 AOE轨道数据
星历时间 2026-09-12T06:24:43+0800
6小时前
查看轨道信息
2026-09-05T22:00:00+0800
6天前
查看轨道信息
半长轴 7155.806km 7155.803km
偏心率 0.0002247 0.0002155
轨道倾角 86.391° 86.391°
近地点辐角 91.767° 86.978°
升交点赤经 254.176° 256.834°
平近点角 268.378° 265.096°
近地点 776.061km 776.123km
远地点 779.277km 779.209km
周期 100.403分钟 100.403分钟
每日圈数 14.342174 14.342182
Detailed Information
平衡模式:
三轴稳定
覆盖范围:
全球
运营商:
铱星通信公司
运营商所在国:
美国
制造商(研发单位):
阿莱尼亚宇航公司
制造商所在国:
意大利
使用方式:
暂无
Satellite Introduction
铱星(Iridium)是由共66个运作中的通信卫星组成的卫星通信系统。这个系统原本规划77个通信卫星,所以用原子序数为77的铱元素来命名。铱卫星允许人们使用手持型电子设备进行全球性的语音及数据通讯。该卫星仍在工作。
2D Orbit Map
3D Orbit Map
Orbit Altitude Analysis Chart
Orbit Inclination Analysis Chart
Orbit Comprehensive Analysis Chart
View Comprehensive Chart
Miss Distance Evolution Trend with All Objects
Collision Probability Evolution Trend with All Objects